Time,TemperatureF,DewpointF,PressureIn,WindDirection,WindDirectionDegrees,WindSpeedMPH,WindSpeedGustMPH,Humidity,HourlyPrecipIn,Conditions,Clouds,dailyrainin,SoftwareType,DateUTC
2013-02-26 00:00:00,35.9,32.1,30.22,North,0,0.0,0.0,86,0.00,OVC,,0.00,WeatherDisplay:10.37,2013-02-26 05:00:00,
2013-02-26 00:01:00,35.9,32.1,30.22,North,0,0.0,0.0,86,0.00,OVC,,0.00,WeatherDisplay:10.37,2013-02-26 05:01:00,
2013-02-26 00:06:00,35.9,32.1,30.22,North,0,0.0,0.0,86,0.00,CLR,,0.00,WeatherDisplay:10.37,2013-02-26 05:06:00,
2013-02-26 00:11:00,35.9,32.1,30.22,North,0,0.0,0.0,86,0.00,CLR,,0.00,WeatherDisplay:10.37,2013-02-26 05:11:00,
2013-02-26 00:16:00,35.9,32.1,30.22,North,0,0.0,0.0,86,0.00,CLR,,0.00,WeatherDisplay:10.37,2013-02-26 05:16:00,
2013-02-26 00:21:00,35.9,32.1,30.22,North,0,0.0,0.0,86,0.00,CLR,,0.00,WeatherDisplay:10.37,2013-02-26 05:21:00,
2013-02-26 00:26:00,35.9,32.1,30.22,North,0,0.0,0.0,86,0.00,CLR,,0.00,WeatherDisplay:10.37,2013-02-26 05:26:00,
2013-02-26 00:31:00,35.9,32.1,30.22,North,0,0.0,0.0,86,0.00,CLR,,0.00,WeatherDisplay:10.37,2013-02-26 05:31:00,
2013-02-26 00:36:00,35.9,32.1,30.22,North,0,0.0,0.0,86,0.00,CLR,,0.00,WeatherDisplay:10.37,2013-02-26 05:36:00,
2013-02-26 00:41:00,35.9,32.1,30.21,North,0,0.0,0.0,86,0.00,CLR,,0.00,WeatherDisplay:10.37,2013-02-26 05:41:00,
2013-02-26 00:46:00,32.1,29.8,30.21,West,265,0.0,0.0,91,0.00,CLR,,0.00,WeatherDisplay:10.37,2013-02-26 05:46:00,
2013-02-26 00:51:00,31.9,29.6,30.21,West,265,0.0,0.0,91,0.00,CLR,,0.00,WeatherDisplay:10.37,2013-02-26 05:51:00,
2013-02-26 00:56:00,31.8,29.5,30.22,West,265,0.0,0.0,91,0.00,CLR,,0.00,WeatherDisplay:10.37,2013-02-26 05:56:00,
2013-02-26 01:01:00,31.6,29.5,30.22,West,265,0.0,0.0,92,0.00,CLR,,0.00,WeatherDisplay:10.37,2013-02-26 06:01:00,
2013-02-26 01:06:00,31.4,29.3,30.21,North,355,0.0,0.0,92,0.00,CLR,,0.00,WeatherDisplay:10.37,2013-02-26 06:06:00,
2013-02-26 01:11:00,31.2,29.1,30.21,North,355,0.0,0.0,92,0.00,CLR,,0.00,WeatherDisplay:10.37,2013-02-26 06:11:00,
2013-02-26 01:16:00,31.2,29.1,30.20,North,355,0.0,0.0,92,0.00,CLR,,0.00,WeatherDisplay:10.37,2013-02-26 06:16:00,
2013-02-26 01:21:00,31.2,29.1,30.20,North,355,0.0,0.0,92,0.00,CLR,,0.00,WeatherDisplay:10.37,2013-02-26 06:21:00,
2013-02-26 01:26:00,31.2,29.1,30.20,NNE,16,0.0,0.0,92,0.00,CLR,,0.00,WeatherDisplay:10.37,2013-02-26 06:26:00,
2013-02-26 01:31:00,31.2,29.1,30.20,North,0,0.0,0.0,92,0.00,CLR,,0.00,WeatherDisplay:10.37,2013-02-26 06:31:00,
2013-02-26 01:36:00,31.2,29.1,30.20,North,0,0.0,0.0,92,0.00,CLR,,0.00,WeatherDisplay:10.37,2013-02-26 06:36:00,
2013-02-26 01:41:00,31.2,29.1,30.20,North,0,0.0,0.0,92,0.00,CLR,,0.00,WeatherDisplay:10.37,2013-02-26 06:41:00,
2013-02-26 01:46:00,31.2,29.1,30.19,North,0,0.0,0.0,92,0.00,CLR,,0.00,WeatherDisplay:10.37,2013-02-26 06:46:00,
2013-02-26 01:51:00,31.2,29.1,30.20,North,0,0.0,0.0,92,0.00,CLR,,0.00,WeatherDisplay:10.37,2013-02-26 06:51:00,
2013-02-26 01:56:00,31.2,29.1,30.21,North,0,0.0,0.0,92,0.00,CLR,,0.00,WeatherDisplay:10.37,2013-02-26 06:56:00,
2013-02-26 02:01:00,31.2,29.1,30.22,North,0,0.0,0.0,92,0.00,CLR,,0.00,WeatherDisplay:10.37,2013-02-26 07:01:00,
2013-02-26 02:06:00,31.2,29.1,30.22,North,0,0.0,0.0,92,0.00,CLR,,0.00,WeatherDisplay:10.37,2013-02-26 07:06:00,
2013-02-26 02:11:00,31.2,29.1,30.23,North,0,0.0,0.0,92,0.00,CLR,,0.00,WeatherDisplay:10.37,2013-02-26 07:11:00,
2013-02-26 02:16:00,31.2,29.1,30.24,North,0,0.0,0.0,92,0.00,CLR,,0.00,WeatherDisplay:10.37,2013-02-26 07:16:00,
2013-02-26 02:21:00,31.2,29.1,30.24,North,0,0.0,0.0,92,0.00,CLR,,0.00,WeatherDisplay:10.37,2013-02-26 07:21:00,
2013-02-26 02:26:00,31.2,29.1,30.24,North,0,0.0,0.0,92,0.00,CLR,,0.00,WeatherDisplay:10.37,2013-02-26 07:26:00,
2013-02-26 02:31:00,31.2,29.1,30.24,North,0,0.0,0.0,92,0.00,CLR,,0.00,WeatherDisplay:10.37,2013-02-26 07:31:00,
2013-02-26 02:36:00,30.3,28.3,30.24,NNW,342,4.0,4.0,92,0.00,CLR,,0.00,WeatherDisplay:10.37,2013-02-26 07:36:00,
2013-02-26 02:41:00,30.3,28.3,30.24,NNW,348,4.0,4.0,92,0.00,CLR,,0.00,WeatherDisplay:10.37,2013-02-26 07:41:00,
2013-02-26 02:46:00,30.3,28.3,30.24,North,350,4.6,4.6,92,0.00,CLR,,0.00,WeatherDisplay:10.37,2013-02-26 07:46:00,
2013-02-26 02:51:00,30.0,28.0,30.24,North,350,2.3,2.3,92,0.00,CLR,,0.00,WeatherDisplay:10.37,2013-02-26 07:51:00,
2013-02-26 02:56:00,30.0,28.0,30.25,North,350,0.0,0.0,92,0.00,CLR,,0.00,WeatherDisplay:10.37,2013-02-26 07:56:00,
2013-02-26 03:01:00,30.0,28.2,30.24,North,360,0.0,0.0,93,0.00,CLR,,0.00,WeatherDisplay:10.37,2013-02-26 08:01:00,
2013-02-26 03:06:00,30.1,28.3,30.24,North,355,0.0,0.0,93,0.00,OVC,,0.00,WeatherDisplay:10.37,2013-02-26 08:06:00,
2013-02-26 03:11:00,30.3,28.5,30.25,North,351,0.0,0.0,93,0.00,OVC,,0.00,WeatherDisplay:10.37,2013-02-26 08:11:00,
2013-02-26 03:16:00,30.3,28.5,30.24,North,360,0.0,0.0,93,0.00,OVC,,0.00,WeatherDisplay:10.37,2013-02-26 08:16:00,
2013-02-26 03:21:00,30.4,28.6,30.24,North,360,2.3,2.3,93,0.00,OVC,,0.00,WeatherDisplay:10.37,2013-02-26 08:21:00,
2013-02-26 03:26:00,30.6,28.8,30.25,North,360,0.0,0.0,93,0.00,OVC,,0.00,WeatherDisplay:10.37,2013-02-26 08:26:00,
2013-02-26 03:31:00,30.7,28.9,30.25,North,360,0.0,0.0,93,0.00,OVC,,0.00,WeatherDisplay:10.37,2013-02-26 08:31:00,
2013-02-26 03:36:00,30.6,28.8,30.25,North,360,0.0,0.0,93,0.00,OVC,,0.00,WeatherDisplay:10.37,2013-02-26 08:36:00,
2013-02-26 03:41:00,30.7,28.9,30.25,North,360,3.5,3.5,93,0.00,OVC,,0.00,WeatherDisplay:10.37,2013-02-26 08:41:00,
2013-02-26 03:46:00,30.9,29.1,30.25,North,360,0.0,0.0,93,0.00,OVC,,0.00,WeatherDisplay:10.37,2013-02-26 08:46:00,
2013-02-26 03:51:00,31.2,29.4,30.24,North,360,0.0,0.0,93,0.00,OVC,,0.00,WeatherDisplay:10.37,2013-02-26 08:51:00,
2013-02-26 03:56:00,31.1,29.0,30.24,North,360,0.0,0.0,92,0.00,OVC,,0.00,WeatherDisplay:10.37,2013-02-26 08:56:00,
2013-02-26 04:01:00,31.0,28.9,30.23,North,5,0.0,0.0,92,0.00,OVC,,0.00,WeatherDisplay:10.37,2013-02-26 09:01:00,
2013-02-26 04:06:00,31.1,29.3,30.24,North,5,0.0,0.0,93,0.00,OVC,,0.00,WeatherDisplay:10.37,2013-02-26 09:06:00,
2013-02-26 04:11:00,31.4,29.6,30.23,North,5,0.0,0.0,93,0.00,OVC,,0.00,WeatherDisplay:10.37,2013-02-26 09:11:00,
2013-02-26 04:16:00,31.4,29.3,30.24,North,5,0.0,0.0,92,0.00,OVC,,0.00,WeatherDisplay:10.37,2013-02-26 09:16:00,
2013-02-26 04:21:00,31.4,29.3,30.24,North,5,0.0,0.0,92,0.00,OVC,,0.00,WeatherDisplay:10.37,2013-02-26 09:21:00,
2013-02-26 04:26:00,31.4,29.3,30.24,North,5,0.0,0.0,92,0.00,OVC,,0.00,WeatherDisplay:10.37,2013-02-26 09:26:00,
2013-02-26 04:31:00,31.3,29.2,30.24,North,5,0.0,0.0,92,0.00,OVC,,0.00,WeatherDisplay:10.37,2013-02-26 09:31:00,
2013-02-26 04:36:00,31.3,29.2,30.24,North,5,0.0,0.0,92,0.00,OVC,,0.00,WeatherDisplay:10.37,2013-02-26 09:36:00,
2013-02-26 04:41:00,31.5,29.4,30.24,North,5,0.0,0.0,92,0.00,OVC,,0.00,WeatherDisplay:10.37,2013-02-26 09:41:00,
2013-02-26 04:46:00,32.5,30.7,30.24,North,5,0.0,0.0,93,0.00,OVC,,0.00,WeatherDisplay:10.37,2013-02-26 09:46:00,
2013-02-26 04:51:00,32.4,30.1,30.24,North,5,0.0,0.0,91,0.00,OVC,,0.00,WeatherDisplay:10.37,2013-02-26 09:51:00,
2013-02-26 04:56:00,32.5,30.2,30.24,North,5,0.0,0.0,91,0.00,OVC,,0.00,WeatherDisplay:10.37,2013-02-26 09:56:00,
2013-02-26 05:01:00,32.5,30.2,30.24,North,5,0.0,0.0,91,0.00,OVC,,0.00,WeatherDisplay:10.37,2013-02-26 10:01:00,
2013-02-26 05:06:00,31.9,29.3,30.24,North,5,0.0,0.0,90,0.00,OVC,,0.00,WeatherDisplay:10.37,2013-02-26 10:06:00,
2013-02-26 05:11:00,31.7,29.4,30.24,North,5,0.0,0.0,91,0.00,OVC,,0.00,WeatherDisplay:10.37,2013-02-26 10:11:00,
2013-02-26 05:16:00,31.9,29.8,30.24,North,5,0.0,0.0,92,0.00,OVC,,0.00,WeatherDisplay:10.37,2013-02-26 10:16:00,
2013-02-26 05:21:00,32.2,29.9,30.25,North,5,0.0,0.0,91,0.00,OVC,,0.00,WeatherDisplay:10.37,2013-02-26 10:21:00,
2013-02-26 05:26:00,31.9,29.6,30.25,North,5,0.0,0.0,91,0.00,OVC,,0.00,WeatherDisplay:10.37,2013-02-26 10:26:00,
2013-02-26 05:31:00,31.7,29.4,30.25,North,5,0.0,0.0,91,0.00,OVC,,0.00,WeatherDisplay:10.37,2013-02-26 10:31:00,
2013-02-26 05:36:00,31.6,29.3,30.25,North,5,0.0,0.0,91,0.00,OVC,,0.00,WeatherDisplay:10.37,2013-02-26 10:36:00,
2013-02-26 05:41:00,31.7,29.6,30.25,NE,34,0.0,0.0,92,0.00,OVC,,0.00,WeatherDisplay:10.37,2013-02-26 10:41:00,
2013-02-26 05:46:00,32.1,29.8,30.25,NNE,32,5.8,5.8,91,0.00,OVC,,0.00,WeatherDisplay:10.37,2013-02-26 10:46:00,
2013-02-26 05:51:00,32.4,30.1,30.25,NNW,334,7.0,7.0,91,0.00,OVC,,0.00,WeatherDisplay:10.37,2013-02-26 10:51:00,
2013-02-26 05:56:00,32.1,29.5,30.25,NNW,337,5.8,5.8,90,0.00,OVC,,0.00,WeatherDisplay:10.37,2013-02-26 10:56:00,
2013-02-26 06:01:00,32.3,30.0,30.25,NE,34,5.8,5.8,91,0.00,OVC,,0.00,WeatherDisplay:10.37,2013-02-26 11:01:00,
2013-02-26 06:06:00,32.9,30.3,30.25,NE,50,4.6,4.6,90,0.00,OVC,,0.00,WeatherDisplay:10.37,2013-02-26 11:06:00,
2013-02-26 06:11:00,33.4,30.5,30.25,NNE,33,4.0,4.0,89,0.00,OVC,,0.00,WeatherDisplay:10.37,2013-02-26 11:11:00,
2013-02-26 06:16:00,33.9,30.4,30.25,NE,34,6.9,6.9,87,0.00,OVC,,0.00,WeatherDisplay:10.37,2013-02-26 11:16:00,
2013-02-26 06:21:00,34.2,30.4,30.25,NE,34,8.1,8.1,86,0.00,OVC,,0.00,WeatherDisplay:10.37,2013-02-26 11:21:00,
2013-02-26 06:26:00,34.4,30.4,30.25,NNE,31,5.8,5.8,85,0.00,OVC,,0.00,WeatherDisplay:10.37,2013-02-26 11:26:00,
2013-02-26 06:31:00,34.4,30.4,30.25,NE,36,6.0,6.0,85,0.00,OVC,,0.00,WeatherDisplay:10.37,2013-02-26 11:31:00,
2013-02-26 06:36:00,34.4,30.4,30.26,NNE,32,6.9,6.9,85,0.00,OVC,,0.00,WeatherDisplay:10.37,2013-02-26 11:36:00,
2013-02-26 06:41:00,34.5,30.2,30.26,NE,49,6.9,6.9,84,0.00,OVC,,0.00,WeatherDisplay:10.37,2013-02-26 11:41:00,
2013-02-26 06:46:00,34.6,30.3,30.25,NE,49,8.1,8.1,84,0.00,OVC,,0.00,WeatherDisplay:10.37,2013-02-26 11:46:00,
2013-02-26 06:51:00,34.5,30.2,30.25,NNE,33,6.9,6.9,84,0.00,OVC,,0.00,WeatherDisplay:10.37,2013-02-26 11:51:00,
2013-02-26 06:56:00,34.5,30.2,30.25,NE,46,7.0,7.0,84,0.00,OVC,,0.00,WeatherDisplay:10.37,2013-02-26 11:56:00,
2013-02-26 07:01:00,34.4,30.1,30.25,NE,45,5.0,5.0,84,0.00,OVC,,0.00,WeatherDisplay:10.37,2013-02-26 12:01:00,
2013-02-26 07:06:00,34.3,30.0,30.25,NE,44,6.9,6.9,84,0.00,OVC,,0.00,WeatherDisplay:10.37,2013-02-26 12:06:00,
2013-02-26 07:11:00,34.1,29.8,30.25,NE,52,4.6,4.6,84,0.00,OVC,,0.00,WeatherDisplay:10.37,2013-02-26 12:11:00,
2013-02-26 07:16:00,34.0,30.0,30.26,NE,54,5.8,5.8,85,0.00,OVC,,0.00,WeatherDisplay:10.37,2013-02-26 12:16:00,
2013-02-26 07:21:00,33.8,29.8,30.26,ENE,75,1.1,1.1,85,0.00,OVC,,0.00,WeatherDisplay:10.37,2013-02-26 12:21:00,
2013-02-26 07:26:00,33.9,29.9,30.26,East,90,2.3,2.3,85,0.00,OVC,,0.00,WeatherDisplay:10.37,2013-02-26 12:26:00,
2013-02-26 07:31:00,33.7,29.7,30.26,East,89,3.5,3.5,85,0.00,OVC,,0.00,WeatherDisplay:10.37,2013-02-26 12:31:00,
2013-02-26 07:36:00,33.6,29.9,30.27,East,89,0.0,0.0,86,0.00,OVC,,0.00,WeatherDisplay:10.37,2013-02-26 12:36:00,
2013-02-26 07:41:00,33.5,29.8,30.27,East,89,0.0,0.0,86,0.00,OVC,,0.00,WeatherDisplay:10.37,2013-02-26 12:41:00,
2013-02-26 07:46:00,33.6,29.9,30.27,East,88,0.0,0.0,86,0.00,OVC,,0.00,WeatherDisplay:10.37,2013-02-26 12:46:00,
2013-02-26 07:51:00,33.7,29.7,30.27,East,88,0.0,0.0,85,0.00,OVC,,0.00,WeatherDisplay:10.37,2013-02-26 12:51:00,
2013-02-26 07:56:00,34.1,30.1,30.27,East,88,0.0,0.0,85,0.00,OVC,,0.00,WeatherDisplay:10.37,2013-02-26 12:56:00,
2013-02-26 08:01:00,34.5,30.5,30.27,East,88,0.0,0.0,85,0.00,OVC,,0.00,WeatherDisplay:10.37,2013-02-26 13:01:00,
2013-02-26 08:06:00,35.6,30.6,30.28,East,88,0.0,0.0,82,0.00,OVC,,0.00,WeatherDisplay:10.37,2013-02-26 13:06:00,
2013-02-26 08:11:00,35.7,30.7,30.28,East,88,2.3,2.3,82,0.00,OVC,,0.00,WeatherDisplay:10.37,2013-02-26 13:11:00,
2013-02-26 08:16:00,35.9,30.9,30.28,East,88,3.5,3.5,82,0.00,OVC,,0.00,WeatherDisplay:10.37,2013-02-26 13:16:00,
2013-02-26 08:21:00,36.1,30.8,30.28,East,86,3.5,3.5,81,0.00,OVC,,0.00,WeatherDisplay:10.37,2013-02-26 13:21:00,
2013-02-26 08:26:00,36.0,31.0,30.28,East,101,2.3,2.3,82,0.00,OVC,,0.00,WeatherDisplay:10.37,2013-02-26 13:26:00,
2013-02-26 08:31:00,36.0,31.0,30.28,East,101,2.3,2.3,82,0.00,OVC,,0.00,WeatherDisplay:10.37,2013-02-26 13:31:00,
2013-02-26 08:36:00,38.2,32.3,30.28,East,84,3.5,3.5,79,0.00,OVC,,0.00,WeatherDisplay:10.37,2013-02-26 13:36:00,
2013-02-26 08:41:00,38.0,31.7,30.28,ENE,77,4.0,4.0,78,0.00,OVC,,0.00,WeatherDisplay:10.37,2013-02-26 13:41:00,
2013-02-26 08:46:00,38.7,31.8,30.28,East,90,3.5,3.5,76,0.00,OVC,,0.00,WeatherDisplay:10.37,2013-02-26 13:46:00,
2013-02-26 08:51:00,39.6,31.7,30.28,East,90,3.5,3.5,73,0.00,OVC,,0.00,WeatherDisplay:10.37,2013-02-26 13:51:00,
2013-02-26 08:56:00,39.7,31.8,30.28,East,87,3.5,3.5,73,0.00,OVC,,0.00,WeatherDisplay:10.37,2013-02-26 13:56:00,
2013-02-26 09:01:00,39.6,31.3,30.28,East,86,4.6,4.6,72,0.00,OVC,,0.00,WeatherDisplay:10.37,2013-02-26 14:01:00,
2013-02-26 09:06:00,41.7,32.3,30.27,ESE,106,3.5,3.5,69,0.00,FEW,,0.00,WeatherDisplay:10.37,2013-02-26 14:06:00,
2013-02-26 09:11:00,43.1,32.5,30.28,ESE,119,3.0,3.0,66,0.00,FEW,,0.00,WeatherDisplay:10.37,2013-02-26 14:11:00,
2013-02-26 09:16:00,41.1,31.7,30.28,ESE,120,0.0,0.0,69,0.00,FEW,,0.00,WeatherDisplay:10.37,2013-02-26 14:16:00,
2013-02-26 09:21:00,40.1,31.1,30.28,SE,129,1.1,0.0,70,0.00,FEW,,0.00,WeatherDisplay:10.37,2013-02-26 14:21:00,
2013-02-26 09:26:00,39.2,31.9,30.29,SE,137,3.5,3.5,75,0.00,FEW,,0.00,WeatherDisplay:10.37,2013-02-26 14:26:00,
2013-02-26 09:31:00,39.1,31.8,30.29,SSE,154,5.8,5.8,75,0.00,FEW,,0.00,WeatherDisplay:10.37,2013-02-26 14:31:00,
2013-02-26 09:36:00,38.9,32.3,30.29,SSE,163,4.0,4.0,77,0.00,FEW,,0.00,WeatherDisplay:10.37,2013-02-26 14:36:00,
2013-02-26 09:41:00,39.5,32.9,30.29,South,188,3.5,3.5,77,0.00,FEW,,0.00,WeatherDisplay:10.37,2013-02-26 14:41:00,
2013-02-26 09:46:00,39.4,32.8,30.29,South,179,3.5,3.5,77,0.00,FEW,,0.00,WeatherDisplay:10.37,2013-02-26 14:46:00,
2013-02-26 09:51:00,40.0,33.7,30.30,SSE,163,3.5,3.5,78,0.00,FEW,,0.00,WeatherDisplay:10.37,2013-02-26 14:51:00,
2013-02-26 09:56:00,39.4,32.8,30.29,SSE,159,5.8,5.8,77,0.00,FEW,,0.00,WeatherDisplay:10.37,2013-02-26 14:56:00,
2013-02-26 10:01:00,39.8,33.2,30.29,SSE,159,3.5,3.5,77,0.00,FEW,,0.00,WeatherDisplay:10.37,2013-02-26 15:01:00,
2013-02-26 10:06:00,40.7,33.4,30.29,SSE,163,4.6,4.6,75,0.00,OVC,,0.00,WeatherDisplay:10.37,2013-02-26 15:06:00,
2013-02-26 10:11:00,39.7,32.8,30.29,SSE,152,4.0,4.0,76,0.00,OVC,,0.00,WeatherDisplay:10.37,2013-02-26 15:11:00,
2013-02-26 10:16:00,40.4,33.8,30.28,SSE,167,4.6,4.6,77,0.00,OVC,,0.00,WeatherDisplay:10.37,2013-02-26 15:16:00,
2013-02-26 10:21:00,39.6,33.6,30.28,SE,142,6.0,6.0,79,0.00,OVC,,0.00,WeatherDisplay:10.37,2013-02-26 15:21:00,
2013-02-26 10:26:00,39.3,33.6,30.28,SE,140,4.0,4.0,80,0.00,OVC,,0.00,WeatherDisplay:10.37,2013-02-26 15:26:00,
2013-02-26 10:31:00,39.1,33.8,30.28,SE,143,5.8,5.8,81,0.00,OVC,,0.00,WeatherDisplay:10.37,2013-02-26 15:31:00,
2013-02-26 10:36:00,39.0,34.0,30.28,SE,144,4.6,4.6,82,0.00,OVC,,0.00,WeatherDisplay:10.37,2013-02-26 15:36:00,
2013-02-26 10:41:00,39.3,33.6,30.28,SE,138,3.5,3.5,80,0.00,OVC,,0.00,WeatherDisplay:10.37,2013-02-26 15:41:00,
2013-02-26 10:46:00,39.7,33.7,30.29,SE,130,3.5,3.5,79,0.00,OVC,,0.00,WeatherDisplay:10.37,2013-02-26 15:46:00,
2013-02-26 10:51:00,40.1,33.8,30.28,East,100,6.9,6.9,78,0.00,OVC,,0.00,WeatherDisplay:10.37,2013-02-26 15:51:00,
2013-02-26 10:56:00,40.0,33.7,30.29,SE,128,8.1,8.1,78,0.00,OVC,,0.00,WeatherDisplay:10.37,2013-02-26 15:56:00,
2013-02-26 11:01:00,39.8,33.8,30.29,ESE,120,10.0,10.0,79,0.00,OVC,,0.00,WeatherDisplay:10.37,2013-02-26 16:01:00,
2013-02-26 11:06:00,39.6,33.9,30.29,ESE,106,11.5,11.5,80,0.00,OVC,,0.00,WeatherDisplay:10.37,2013-02-26 16:06:00,
2013-02-26 11:11:00,39.5,33.8,30.29,SE,130,9.2,9.2,80,0.00,OVC,,0.00,WeatherDisplay:10.37,2013-02-26 16:11:00,
2013-02-26 11:16:00,39.8,34.4,30.29,SE,128,9.2,9.2,81,0.00,OVC,,0.00,WeatherDisplay:10.37,2013-02-26 16:16:00,
2013-02-26 11:21:00,40.0,34.6,30.29,ESE,109,8.0,8.0,81,0.00,OVC,,0.00,WeatherDisplay:10.37,2013-02-26 16:21:00,
2013-02-26 11:26:00,40.5,34.8,30.29,ESE,118,8.1,8.1,80,0.00,OVC,,0.00,WeatherDisplay:10.37,2013-02-26 16:26:00,
2013-02-26 11:31:00,41.3,35.6,30.29,ESE,111,8.1,8.1,80,0.00,OVC,,0.00,WeatherDisplay:10.37,2013-02-26 16:31:00,
2013-02-26 11:36:00,41.6,35.9,30.29,East,84,10.4,10.4,80,0.00,OVC,,0.00,WeatherDisplay:10.37,2013-02-26 16:36:00,
2013-02-26 11:41:00,41.6,35.6,30.28,ESE,119,11.5,11.5,79,0.00,OVC,,0.00,WeatherDisplay:10.37,2013-02-26 16:41:00,
2013-02-26 11:46:00,40.8,35.1,30.28,ESE,108,11.5,11.5,80,0.00,OVC,,0.00,WeatherDisplay:10.37,2013-02-26 16:46:00,
2013-02-26 11:51:00,40.8,35.1,30.28,SE,127,11.5,11.5,80,0.00,OVC,,0.00,WeatherDisplay:10.37,2013-02-26 16:51:00,
2013-02-26 11:56:00,40.7,35.3,30.28,SE,142,3.5,3.5,81,0.00,OVC,,0.00,WeatherDisplay:10.37,2013-02-26 16:56:00,
2013-02-26 12:01:00,40.7,35.3,30.28,SE,142,3.5,3.5,81,0.00,OVC,,0.00,WeatherDisplay:10.37,2013-02-26 17:01:00,
2013-02-26 12:06:00,40.5,36.0,30.29,SE,128,12.0,12.0,84,0.00,OVC,,0.00,WeatherDisplay:10.37,2013-02-26 17:06:00,
2013-02-26 12:11:00,40.6,36.4,30.28,ESE,108,9.2,9.2,85,0.00,OVC,,0.00,WeatherDisplay:10.37,2013-02-26 17:11:00,
2013-02-26 12:16:00,40.7,36.5,30.28,SE,134,11.5,11.5,85,0.00,OVC,,0.00,WeatherDisplay:10.37,2013-02-26 17:16:00,
2013-02-26 12:21:00,40.5,36.6,30.27,ESE,111,9.2,9.2,86,0.00,OVC,,0.00,WeatherDisplay:10.37,2013-02-26 17:21:00,
2013-02-26 12:26:00,40.4,36.5,30.27,ESE,122,10.0,10.0,86,0.00,OVC,,0.00,WeatherDisplay:10.37,2013-02-26 17:26:00,
2013-02-26 12:31:00,40.3,36.7,30.27,ESE,121,11.5,11.5,87,0.00,OVC,,0.00,WeatherDisplay:10.37,2013-02-26 17:31:00,
2013-02-26 12:36:00,40.1,36.5,30.27,SE,134,11.0,11.0,87,0.00,OVC,,0.00,WeatherDisplay:10.37,2013-02-26 17:36:00,
2013-02-26 12:41:00,40.2,36.6,30.27,SE,124,13.0,13.0,87,0.00,OVC,,0.00,WeatherDisplay:10.37,2013-02-26 17:41:00,
2013-02-26 12:46:00,39.9,36.3,30.27,SSE,153,11.5,11.5,87,0.00,OVC,,0.00,WeatherDisplay:10.37,2013-02-26 17:46:00,
2013-02-26 12:51:00,39.9,36.1,30.27,ESE,121,12.7,12.7,86,0.00,OVC,,0.00,WeatherDisplay:10.37,2013-02-26 17:51:00,
2013-02-26 12:56:00,40.0,36.2,30.27,SE,127,12.7,12.7,86,0.00,OVC,,0.00,WeatherDisplay:10.37,2013-02-26 17:56:00,
2013-02-26 13:01:00,40.0,36.2,30.27,SE,134,12.7,12.7,86,0.00,OVC,,0.00,WeatherDisplay:10.37,2013-02-26 18:01:00,
2013-02-26 13:06:00,40.4,36.2,30.26,ESE,117,11.5,11.5,85,0.00,BKN,,0.00,WeatherDisplay:10.37,2013-02-26 18:06:00,
2013-02-26 13:11:00,40.3,35.8,30.26,ESE,102,11.5,11.5,84,0.00,BKN,,0.00,WeatherDisplay:10.37,2013-02-26 18:11:00,
2013-02-26 13:16:00,40.2,35.8,30.25,East,84,11.5,11.5,84,0.00,BKN,,0.00,WeatherDisplay:10.37,2013-02-26 18:16:00,
2013-02-26 13:21:00,40.0,35.6,30.25,ESE,104,11.5,11.5,84,0.00,BKN,,0.00,WeatherDisplay:10.37,2013-02-26 18:21:00,
2013-02-26 13:26:00,39.7,35.0,30.25,SE,138,12.7,12.7,83,0.00,BKN,,0.00,WeatherDisplay:10.37,2013-02-26 18:26:00,
2013-02-26 13:31:00,39.8,35.4,30.25,SE,127,11.5,11.5,84,0.00,BKN,,0.00,WeatherDisplay:10.37,2013-02-26 18:31:00,
2013-02-26 13:36:00,39.5,35.1,30.25,East,101,10.4,10.4,84,0.00,BKN,,0.00,WeatherDisplay:10.37,2013-02-26 18:36:00,
2013-02-26 13:41:00,39.3,34.9,30.25,SE,138,11.5,11.5,84,0.00,BKN,,0.00,WeatherDisplay:10.37,2013-02-26 18:41:00,
2013-02-26 13:46:00,39.3,34.9,30.25,ESE,122,9.2,9.2,84,0.00,BKN,,0.00,WeatherDisplay:10.37,2013-02-26 18:46:00,
2013-02-26 13:51:00,39.2,34.8,30.25,SE,126,11.5,11.5,84,0.00,BKN,,0.00,WeatherDisplay:10.37,2013-02-26 18:51:00,
2013-02-26 13:56:00,39.1,34.7,30.25,SE,135,12.7,12.7,84,0.00,BKN,,0.00,WeatherDisplay:10.37,2013-02-26 18:56:00,
2013-02-26 14:01:00,39.1,35.0,30.24,SE,124,12.0,12.0,85,0.00,BKN,,0.00,WeatherDisplay:10.37,2013-02-26 19:01:00,
2013-02-26 14:06:00,39.0,34.6,30.24,East,101,12.7,12.7,84,0.00,OVC,,0.00,WeatherDisplay:10.37,2013-02-26 19:06:00,
2013-02-26 14:11:00,39.0,34.9,30.23,SE,130,12.0,12.0,85,0.00,OVC,,0.00,WeatherDisplay:10.37,2013-02-26 19:11:00,
2013-02-26 14:16:00,39.1,34.7,30.23,East,88,9.2,9.2,84,0.00,OVC,,0.00,WeatherDisplay:10.37,2013-02-26 19:16:00,
2013-02-26 14:21:00,39.2,35.1,30.23,East,100,10.4,10.4,85,0.00,OVC,,0.00,WeatherDisplay:10.37,2013-02-26 19:21:00,
2013-02-26 14:26:00,39.1,35.0,30.23,ESE,117,12.7,12.7,85,0.00,OVC,,0.00,WeatherDisplay:10.37,2013-02-26 19:26:00,
2013-02-26 14:31:00,39.0,34.6,30.23,ESE,121,11.5,11.5,84,0.00,OVC,,0.00,WeatherDisplay:10.37,2013-02-26 19:31:00,
2013-02-26 14:36:00,38.9,34.5,30.23,ESE,123,10.4,10.4,84,0.00,OVC,,0.00,WeatherDisplay:10.37,2013-02-26 19:36:00,
2013-02-26 14:41:00,38.8,33.8,30.23,SE,130,15.0,15.0,82,0.00,OVC,,0.00,WeatherDisplay:10.37,2013-02-26 19:41:00,
2013-02-26 14:46:00,38.8,34.1,30.23,SE,129,13.8,13.8,83,0.00,OVC,,0.00,WeatherDisplay:10.37,2013-02-26 19:46:00,
2013-02-26 14:51:00,38.8,34.4,30.23,SE,139,11.5,11.5,84,0.00,OVC,,0.00,WeatherDisplay:10.37,2013-02-26 19:51:00,
2013-02-26 14:56:00,38.7,34.0,30.24,SE,132,13.0,13.0,83,0.00,OVC,,0.00,WeatherDisplay:10.37,2013-02-26 19:56:00,
2013-02-26 15:01:00,38.7,33.7,30.24,SE,132,11.5,11.5,82,0.00,OVC,,0.00,WeatherDisplay:10.37,2013-02-26 20:01:00,
2013-02-26 15:06:00,38.6,33.9,30.24,SE,133,11.5,11.5,83,0.00,OVC,,0.00,WeatherDisplay:10.37,2013-02-26 20:06:00,
2013-02-26 15:11:00,38.6,33.9,30.24,ESE,117,11.5,11.5,83,0.00,OVC,,0.00,WeatherDisplay:10.37,2013-02-26 20:11:00,
2013-02-26 15:16:00,38.6,33.9,30.24,SE,136,14.0,14.0,83,0.00,OVC,,0.00,WeatherDisplay:10.37,2013-02-26 20:16:00,
2013-02-26 15:21:00,38.6,33.9,30.24,ESE,111,11.5,11.5,83,0.00,OVC,,0.00,WeatherDisplay:10.37,2013-02-26 20:21:00,
2013-02-26 15:26:00,38.6,33.9,30.24,SE,136,11.5,11.5,83,0.00,OVC,,0.00,WeatherDisplay:10.37,2013-02-26 20:26:00,
2013-02-26 15:31:00,38.7,34.0,30.24,SE,126,11.5,11.5,83,0.00,OVC,,0.00,WeatherDisplay:10.37,2013-02-26 20:31:00,
2013-02-26 15:36:00,38.6,33.9,30.24,SE,134,12.0,12.0,83,0.00,OVC,,0.00,WeatherDisplay:10.37,2013-02-26 20:36:00,
2013-02-26 15:41:00,38.6,33.3,30.24,SE,132,11.5,11.5,81,0.00,OVC,,0.00,WeatherDisplay:10.37,2013-02-26 20:41:00,
2013-02-26 15:46:00,38.6,33.3,30.23,SE,126,11.5,11.5,81,0.00,OVC,,0.00,WeatherDisplay:10.37,2013-02-26 20:46:00,
2013-02-26 15:51:00,38.6,33.3,30.23,SE,127,11.5,11.5,81,0.00,OVC,,0.00,WeatherDisplay:10.37,2013-02-26 20:51:00,
2013-02-26 15:56:00,38.6,33.0,30.23,SE,125,12.7,12.7,80,0.00,OVC,,0.00,WeatherDisplay:10.37,2013-02-26 20:56:00,
2013-02-26 16:01:00,38.5,32.6,30.22,SE,128,13.8,13.8,79,0.00,OVC,,0.00,WeatherDisplay:10.37,2013-02-26 21:01:00,
2013-02-26 16:06:00,38.4,32.1,30.22,East,96,12.7,12.7,78,0.00,OVC,,0.00,WeatherDisplay:10.37,2013-02-26 21:06:00,
2013-02-26 16:11:00,38.4,32.1,30.21,ESE,111,12.7,12.7,78,0.00,OVC,,0.00,WeatherDisplay:10.37,2013-02-26 21:11:00,
2013-02-26 16:16:00,38.4,32.1,30.21,ESE,110,11.5,11.5,78,0.00,OVC,,0.00,WeatherDisplay:10.37,2013-02-26 21:16:00,
2013-02-26 16:21:00,38.4,32.1,30.20,SE,125,9.2,9.2,78,0.00,OVC,,0.00,WeatherDisplay:10.37,2013-02-26 21:21:00,
2013-02-26 16:26:00,38.5,31.9,30.21,ESE,116,12.7,12.7,77,0.00,OVC,,0.00,WeatherDisplay:10.37,2013-02-26 21:26:00,
2013-02-26 16:31:00,38.4,32.1,30.20,East,98,10.0,10.0,78,0.00,OVC,,0.00,WeatherDisplay:10.37,2013-02-26 21:31:00,
2013-02-26 16:36:00,38.4,32.1,30.20,SE,134,10.0,10.0,78,0.00,OVC,,0.00,WeatherDisplay:10.37,2013-02-26 21:36:00,
2013-02-26 16:41:00,38.3,31.4,30.20,East,92,12.0,12.0,76,0.00,OVC,,0.00,WeatherDisplay:10.37,2013-02-26 21:41:00,
2013-02-26 16:46:00,38.2,31.6,30.20,ESE,115,10.4,10.4,77,0.00,OVC,,0.00,WeatherDisplay:10.37,2013-02-26 21:46:00,
2013-02-26 16:51:00,38.1,31.2,30.20,ESE,110,10.4,10.4,76,0.00,OVC,,0.00,WeatherDisplay:10.37,2013-02-26 21:51:00,
2013-02-26 16:56:00,38.2,31.3,30.19,ESE,105,10.0,10.0,76,0.00,OVC,,0.00,WeatherDisplay:10.37,2013-02-26 21:56:00,
2013-02-26 17:01:00,38.2,31.3,30.19,ESE,109,10.4,10.4,76,0.00,BKN,,0.00,WeatherDisplay:10.37,2013-02-26 22:01:00,
2013-02-26 17:06:00,38.2,31.3,30.19,ESE,102,10.4,10.4,76,0.00,BKN,,0.00,WeatherDisplay:10.37,2013-02-26 22:06:00,
2013-02-26 17:11:00,38.1,31.2,30.19,East,98,11.5,11.5,76,0.00,BKN,,0.00,WeatherDisplay:10.37,2013-02-26 22:11:00,
2013-02-26 17:16:00,38.0,31.4,30.19,ESE,107,10.0,10.0,77,0.00,BKN,,0.00,WeatherDisplay:10.37,2013-02-26 22:16:00,
2013-02-26 17:21:00,38.0,31.4,30.20,ESE,108,11.0,11.0,77,0.00,BKN,,0.00,WeatherDisplay:10.37,2013-02-26 22:21:00,
2013-02-26 17:26:00,38.0,31.4,30.19,East,91,15.0,15.0,77,0.00,BKN,,0.00,WeatherDisplay:10.37,2013-02-26 22:26:00,
2013-02-26 17:31:00,38.0,31.4,30.19,East,84,11.5,11.5,77,0.00,BKN,,0.00,WeatherDisplay:10.37,2013-02-26 22:31:00,
2013-02-26 17:36:00,37.9,31.7,30.19,East,85,10.0,10.0,78,0.00,BKN,,0.00,WeatherDisplay:10.37,2013-02-26 22:36:00,
2013-02-26 17:41:00,37.9,31.7,30.19,East,96,11.5,11.5,78,0.00,BKN,,0.00,WeatherDisplay:10.37,2013-02-26 22:41:00,
2013-02-26 17:46:00,37.9,31.7,30.19,ESE,112,15.0,15.0,78,0.00,BKN,,0.00,WeatherDisplay:10.37,2013-02-26 22:46:00,
2013-02-26 17:51:00,37.9,31.7,30.19,East,97,16.1,16.1,78,0.00,BKN,,0.00,WeatherDisplay:10.37,2013-02-26 22:51:00,
2013-02-26 17:56:00,37.9,32.0,30.19,ESE,106,11.0,11.0,79,0.00,BKN,,0.00,WeatherDisplay:10.37,2013-02-26 22:56:00,
2013-02-26 18:01:00,38.0,32.4,30.19,East,98,8.1,8.1,80,0.00,BKN,,0.00,WeatherDisplay:10.37,2013-02-26 23:01:00,
2013-02-26 18:06:00,37.9,32.3,30.18,East,98,13.8,13.8,80,0.00,OVC,,0.00,WeatherDisplay:10.37,2013-02-26 23:06:00,
2013-02-26 18:11:00,37.8,32.2,30.17,East,79,11.5,11.5,80,0.00,OVC,,0.00,WeatherDisplay:10.37,2013-02-26 23:11:00,
2013-02-26 18:16:00,37.9,32.3,30.17,East,84,12.7,12.7,80,0.00,OVC,,0.00,WeatherDisplay:10.37,2013-02-26 23:16:00,
2013-02-26 18:21:00,37.9,32.0,30.17,ESE,110,12.0,12.0,79,0.00,OVC,,0.00,WeatherDisplay:10.37,2013-02-26 23:21:00,
2013-02-26 18:26:00,37.9,32.0,30.17,ESE,113,16.1,16.1,79,0.00,OVC,,0.00,WeatherDisplay:10.37,2013-02-26 23:26:00,
2013-02-26 18:31:00,37.9,31.7,30.17,East,98,13.8,13.8,78,0.00,OVC,,0.00,WeatherDisplay:10.37,2013-02-26 23:31:00,
2013-02-26 18:36:00,37.9,31.7,30.17,East,91,11.0,11.0,78,0.00,OVC,,0.00,WeatherDisplay:10.37,2013-02-26 23:36:00,
2013-02-26 18:41:00,38.0,31.4,30.17,East,91,16.1,16.1,77,0.00,OVC,,0.00,WeatherDisplay:10.37,2013-02-26 23:41:00,
2013-02-26 18:46:00,38.0,31.4,30.17,East,79,12.7,12.7,77,0.00,OVC,,0.00,WeatherDisplay:10.37,2013-02-26 23:46:00,
2013-02-26 18:51:00,38.0,31.4,30.17,East,92,12.0,12.0,77,0.00,OVC,,0.00,WeatherDisplay:10.37,2013-02-26 23:51:00,
2013-02-26 18:56:00,38.1,31.8,30.17,ESE,107,13.8,13.8,78,0.00,OVC,,0.00,WeatherDisplay:10.37,2013-02-26 23:56:00,
2013-02-26 19:01:00,38.1,31.5,30.17,East,96,16.1,16.1,77,0.00,OVC,,0.00,WeatherDisplay:10.37,2013-02-27 00:01:00,
2013-02-26 19:06:00,38.0,31.4,30.16,East,95,18.4,18.4,77,0.00,OVC,,0.00,WeatherDisplay:10.37,2013-02-27 00:06:00,
2013-02-26 19:11:00,38.1,31.5,30.16,ENE,74,16.1,16.1,77,0.00,OVC,,0.00,WeatherDisplay:10.37,2013-02-27 00:11:00,
2013-02-26 19:16:00,38.0,31.4,30.16,East,79,15.0,15.0,77,0.00,OVC,,0.00,WeatherDisplay:10.37,2013-02-27 00:16:00,
2013-02-26 19:21:00,37.9,31.3,30.16,ENE,73,16.1,16.1,77,0.00,OVC,,0.00,WeatherDisplay:10.37,2013-02-27 00:21:00,
2013-02-26 19:26:00,37.9,31.3,30.16,East,98,13.8,13.8,77,0.00,OVC,,0.00,WeatherDisplay:10.37,2013-02-27 00:26:00,
2013-02-26 19:31:00,37.9,31.3,30.15,ENE,74,12.7,12.7,77,0.00,OVC,,0.00,WeatherDisplay:10.37,2013-02-27 00:31:00,
2013-02-26 19:36:00,37.9,31.3,30.15,East,85,15.0,15.0,77,0.00,OVC,,0.00,WeatherDisplay:10.37,2013-02-27 00:36:00,
2013-02-26 19:41:00,37.9,31.7,30.15,ESE,117,18.4,18.4,78,0.00,OVC,,0.00,WeatherDisplay:10.37,2013-02-27 00:41:00,
2013-02-26 19:46:00,38.0,31.7,30.15,East,84,11.5,11.5,78,0.00,OVC,,0.00,WeatherDisplay:10.37,2013-02-27 00:46:00,
2013-02-26 19:51:00,38.0,32.1,30.15,SE,130,12.7,12.7,79,0.00,OVC,,0.00,WeatherDisplay:10.37,2013-02-27 00:51:00,
2013-02-26 19:56:00,38.1,32.2,30.15,East,79,12.7,12.7,79,0.00,OVC,,0.00,WeatherDisplay:10.37,2013-02-27 00:56:00,
2013-02-26 20:01:00,38.2,32.6,30.15,ESE,106,13.8,13.8,80,0.00,BKN,,0.00,WeatherDisplay:10.37,2013-02-27 01:01:00,
2013-02-26 20:06:00,38.2,32.6,30.15,East,88,12.7,12.7,80,0.00,BKN,,0.00,WeatherDisplay:10.37,2013-02-27 01:06:00,
2013-02-26 20:11:00,38.2,32.6,30.14,ESE,103,14.0,14.0,80,0.00,BKN,,0.00,WeatherDisplay:10.37,2013-02-27 01:11:00,
2013-02-26 20:16:00,38.3,33.0,30.14,East,82,12.7,12.7,81,0.00,BKN,,0.00,WeatherDisplay:10.37,2013-02-27 01:16:00,
2013-02-26 20:21:00,38.3,32.7,30.14,East,87,19.6,19.6,80,0.00,BKN,,0.00,WeatherDisplay:10.37,2013-02-27 01:21:00,
2013-02-26 20:26:00,38.3,32.7,30.14,East,80,13.0,13.0,80,0.00,BKN,,0.00,WeatherDisplay:10.37,2013-02-27 01:26:00,
2013-02-26 20:31:00,38.3,32.7,30.14,East,80,18.4,18.4,80,0.00,BKN,,0.00,WeatherDisplay:10.37,2013-02-27 01:31:00,
2013-02-26 20:36:00,38.4,32.8,30.14,ENE,74,17.3,17.3,80,0.00,BKN,,0.00,WeatherDisplay:10.37,2013-02-27 01:36:00,
2013-02-26 20:41:00,38.4,33.1,30.14,ESE,107,18.4,18.4,81,0.00,BKN,,0.00,WeatherDisplay:10.37,2013-02-27 01:41:00,
2013-02-26 20:46:00,38.4,33.1,30.14,East,98,13.8,13.8,81,0.00,BKN,,0.00,WeatherDisplay:10.37,2013-02-27 01:46:00,
2013-02-26 20:51:00,38.4,33.1,30.13,ENE,66,17.3,17.3,81,0.00,BKN,,0.00,WeatherDisplay:10.37,2013-02-27 01:51:00,
2013-02-26 20:56:00,38.3,33.0,30.13,NE,56,18.4,18.4,81,0.00,BKN,,0.00,WeatherDisplay:10.37,2013-02-27 01:56:00,
2013-02-26 21:01:00,38.3,33.0,30.12,East,79,18.4,18.4,81,0.00,-RA,,0.00,WeatherDisplay:10.37,2013-02-27 02:01:00,
2013-02-26 21:06:00,38.2,33.2,30.12,East,94,18.0,18.0,82,0.00,-RA,,0.00,WeatherDisplay:10.37,2013-02-27 02:06:00,
2013-02-26 21:11:00,38.1,33.1,30.11,NE,52,21.9,21.9,82,0.00,-RA,,0.00,WeatherDisplay:10.37,2013-02-27 02:11:00,
2013-02-26 21:16:00,38.0,33.3,30.11,East,88,21.0,21.0,83,0.00,-RA,,0.00,WeatherDisplay:10.37,2013-02-27 02:16:00,
2013-02-26 21:22:00,37.8,33.1,30.11,East,81,18.4,18.4,83,0.00,-RA,,0.00,WeatherDisplay:10.37,2013-02-27 02:22:00,
2013-02-26 21:27:00,37.7,33.3,30.11,ESE,102,20.0,20.0,84,0.00,-RA,,0.00,WeatherDisplay:10.37,2013-02-27 02:27:00,
2013-02-26 21:32:00,37.5,33.4,30.10,ENE,77,21.9,21.9,85,0.00,-RA,,0.00,WeatherDisplay:10.37,2013-02-27 02:32:00,
2013-02-26 21:37:00,37.3,33.2,30.09,East,79,18.4,18.4,85,0.00,-RA,,0.00,WeatherDisplay:10.37,2013-02-27 02:37:00,
2013-02-26 21:42:00,37.3,33.2,30.09,East,98,13.8,13.8,85,0.00,-RA,,0.00,WeatherDisplay:10.37,2013-02-27 02:42:00,
2013-02-26 21:47:00,37.1,33.0,30.10,East,90,19.6,19.6,85,0.00,-RA,,0.00,WeatherDisplay:10.37,2013-02-27 02:47:00,
2013-02-26 21:52:00,37.1,33.0,30.10,East,86,17.0,17.0,85,0.00,-RA,,0.00,WeatherDisplay:10.37,2013-02-27 02:52:00,
2013-02-26 21:57:00,37.1,32.7,30.09,East,95,16.1,16.1,84,0.00,-RA,,0.00,WeatherDisplay:10.37,2013-02-27 02:57:00,
2013-02-26 22:03:00,37.0,32.6,30.09,ENE,74,16.1,16.1,84,0.00,OVC,,0.00,WeatherDisplay:10.37,2013-02-27 03:03:00,
2013-02-26 22:08:00,37.0,32.6,30.08,East,100,19.6,19.6,84,0.00,OVC,,0.00,WeatherDisplay:10.37,2013-02-27 03:08:00,
2013-02-26 22:13:00,37.0,32.9,30.07,ESE,113,19.6,19.6,85,0.00,OVC,,0.00,WeatherDisplay:10.37,2013-02-27 03:13:00,
2013-02-26 22:18:00,37.0,32.9,30.07,ENE,74,20.0,20.0,85,0.00,OVC,,0.00,WeatherDisplay:10.37,2013-02-27 03:18:00,
2013-02-26 22:23:00,37.0,32.6,30.06,East,92,18.0,18.0,84,0.00,OVC,,0.00,WeatherDisplay:10.37,2013-02-27 03:23:00,
2013-02-26 22:28:00,37.0,32.6,30.06,East,84,21.0,21.0,84,0.00,OVC,,0.00,WeatherDisplay:10.37,2013-02-27 03:28:00,
2013-02-26 22:33:00,37.0,32.6,30.05,ESE,109,17.3,17.3,84,0.00,OVC,,0.00,WeatherDisplay:10.37,2013-02-27 03:33:00,
2013-02-26 22:38:00,36.9,32.8,30.05,East,83,16.1,16.1,85,0.01,RA,,0.01,WeatherDisplay:10.37,2013-02-27 03:38:00,
2013-02-26 22:43:00,36.8,33.0,30.04,East,87,20.7,20.7,86,0.01,RA,,0.01,WeatherDisplay:10.37,2013-02-27 03:43:00,
2013-02-26 22:48:00,36.8,33.3,30.03,ENE,71,19.6,19.6,87,0.02,RA,,0.02,WeatherDisplay:10.37,2013-02-27 03:48:00,
2013-02-26 22:53:00,36.7,33.2,30.04,East,99,21.9,21.9,87,0.02,RA,,0.02,WeatherDisplay:10.37,2013-02-27 03:53:00,
2013-02-26 22:58:00,36.7,33.2,30.04,East,91,17.3,17.3,87,0.02,OVC,,0.02,WeatherDisplay:10.37,2013-02-27 03:58:00,
2013-02-26 23:03:00,36.7,33.5,30.04,East,84,18.4,18.4,88,0.03,RA,,0.03,WeatherDisplay:10.37,2013-02-27 04:03:00,
2013-02-26 23:08:00,36.6,33.4,30.04,ENE,67,16.1,16.1,88,0.03,RA,,0.03,WeatherDisplay:10.37,2013-02-27 04:08:00,
2013-02-26 23:13:00,36.6,33.4,30.04,ENE,66,15.0,15.0,88,0.03,OVC,,0.03,WeatherDisplay:10.37,2013-02-27 04:13:00,
2013-02-26 23:18:00,36.6,33.7,30.03,East,80,18.4,18.4,89,0.04,RA,,0.04,WeatherDisplay:10.37,2013-02-27 04:18:00,
2013-02-26 23:23:00,36.6,33.7,30.03,East,85,18.0,18.0,89,0.05,RA,,0.05,WeatherDisplay:10.37,2013-02-27 04:23:00,
2013-02-26 23:28:00,36.5,33.6,30.03,East,83,19.6,19.6,89,0.05,RA,,0.05,WeatherDisplay:10.37,2013-02-27 04:28:00,
2013-02-26 23:33:00,36.5,33.6,30.02,ENE,73,19.6,19.6,89,0.06,RA,,0.06,WeatherDisplay:10.37,2013-02-27 04:33:00,
2013-02-26 23:38:00,36.4,33.5,30.02,ENE,77,18.0,18.0,89,0.05,RA,,0.06,WeatherDisplay:10.37,2013-02-27 04:38:00,
2013-02-26 23:43:00,36.4,33.7,30.02,ENE,70,19.6,19.6,90,0.06,RA,,0.07,WeatherDisplay:10.37,2013-02-27 04:43:00,
2013-02-26 23:48:00,36.4,33.7,30.01,NE,53,16.1,16.1,90,0.05,RA,,0.07,WeatherDisplay:10.37,2013-02-27 04:48:00,
2013-02-26 23:53:00,36.3,33.6,30.01,ENE,68,16.1,16.1,90,0.06,RA,,0.08,WeatherDisplay:10.37,2013-02-27 04:53:00,
2013-02-26 23:58:00,36.3,33.6,30.01,NNE,17,17.3,17.3,90,0.07,RA,,0.09,WeatherDisplay:10.37,2013-02-27 04:58:00,